Free Severe Weather Alerts by Email and Text Message   

 
Follow iAlert.com on twitter @ialertcom
Search For Active Alerts in Your Area  
  Hi Guest:  [ Sign-up / Services ] [ Login ]

Current weather by "City, St" or "zip code"  

 

Advertise Here

Hazardous Weather Conditions

No active alerts for PHILADELPHIA, PENNSYLVANIA

Current Conditions: PHILADELPHIA, PENNSYLVANIA

Fog/Mist


50.0 F

Last Updated on Dec 15 2018, 8:54 am EST
Humidity: 89%
Wind Speed: NE 13.8 mph
Barometer 30.14 in
Dewpoint: 46.9 F
Visibility: 1.00 mi
Precip: --
Heat Index: NA
Wind Chill: 45 F
Current conditions at:

Philadelphia, Northeast Philadelphia Airport, PA (KPNE)

Lat: 40.07 Lon: -75.013

Local Radar Image active severe weather and emergency alerts image image weather storm and storm spotter reports image weather observation monitoring service image
Local
Radar
Active
Alerts
Storm Reports Weather
Monitoring

Weather Alert Notification Services


ialert severe weather and emergency alerts by text message and email ialert daily weather forecast by email and text message service ialert real-time weather-observation monitoring and alert notification service ialert storm report monitoring alert notification

Observation History for PHILADELPHIA, PENNSYLVANIA


Time Wind
(mph)
Vis
(mi)
Weather Precip (in) Temperature (F) Relative
Humidity
Wind
Chill
(°F)
Heat
Index
(°F)
Pressure
Air Dwpt altimeter
(in)
sea level
(mb)
8:54 am EST NE 13.8 1.00 Fog/Mist -- 50.0 46.9 89% 45 NA 30.14 1020.7
7:54 am EST NE 10.4 0.50 Fog -- 50.0 46.9 89% 46 NA 30.13 1020.1
6:54 am EST NE 10.4 0.50 Fog -- 50.0 46.0 86% 46 NA 30.14 1020.6
5:54 am EST NE 4.6 0.50 Fog 00.01 50.0 46.9 89% 48 NA 30.16 1021.1
4:54 am EST NE 4.6 1.50 Fog/Mist -- 50.0 46.9 89% 48 NA 30.17 1021.6
3:54 am EST NE 5.8 2.00 Fog/Mist Trace 50.0 46.0 86% 48 NA 30.19 1022.3
2:54 am EST NE 5.8 3.00 Light Rain Fog/Mist 00.02 50.0 46.9 89% 48 NA 30.22 1023.2
1:54 am EST NE 3.5 3.00 Light Rain Fog/Mist 00.01 50.0 46.9 89% NA NA 30.22 1023.2
12:54 am EST NE 3.5 2.50 Light Rain Fog/Mist 00.01 50.0 46.9 89% NA NA 30.22 1023.4
11:54 pm EST NE 4.6 3.00 Light Rain Fog/Mist 00.03 50.0 46.9 89% 48 NA 30.24 1023.9
10:54 pm EST NE 4.6 3.00 Light Rain Fog/Mist 00.02 50.0 46.0 86% 48 NA 30.26 1024.8
9:54 pm EST N 0.0 3.00 Light Rain Fog/Mist 00.02 49.0 46.0 90% NA NA 30.29 1025.7
8:54 pm EST N 0.0 6.00 Light Rain Fog/Mist 00.01 50.0 46.9 89% NA NA 30.31 1026.6
7:54 pm EST N 0.0 8.00 Overcast -- 50.0 46.0 86% NA NA 30.32 1026.8
6:54 pm EST N 0.0 9.00 Overcast -- 50.0 46.0 86% NA NA 30.34 1027.5
5:54 pm EST N 0.0 10.00 Overcast Trace 51.0 46.0 83% NA NA 30.35 1027.7
4:54 pm EST N 0.0 10.00 Light Rain Trace 52.0 46.0 80% NA NA 30.35 1027.8
3:54 pm EST SE 3.5 10.00 Mostly Cloudy -- 52.0 46.0 80% NA NA 30.35 1027.7
2:54 pm EST SE 4.6 10.00 Overcast -- 53.0 46.0 77% 52 NA 30.35 1027.8
1:54 pm EST SE 5.8 10.00 Overcast -- 53.0 46.0 77% 51 NA 30.37 1028.4
12:54 pm EST N 0.0 10.00 Overcast -- 53.0 45.0 74% NA NA 30.38 1028.9
11:54 am EST SE 3.5 10.00 Overcast -- 51.0 44.1 77% NA NA 30.39 1029.2
10:54 am EST E 4.6 9.00 Overcast -- 50.0 43.0 77% 48 NA 30.44 1030.7
9:54 am EST E 8.1 8.00 Overcast -- 48.0 43.0 83% 44 NA 30.46 1031.6

Regional Weather Observation:


Pottstown, Pottstown Limerick Airport, PA (KPTW)

Fog/Mist
47.0 F

Doylestown, Doylestown Airport, PA (KDYL)

Fog/Mist
48.0 F

Quakertown Airport, PA (KUKT)

Fog/Mist
46.0 F

Allentown Queen City Municipal Airport, PA (KXLL)

Fog/Mist
45.0 F

Reading, Reading Regional Airport, PA (KRDG)

Overcast
45.0 F

Philadelphia, Philadelphia International Airport, PA (KPHL)

Light Rain Fog/Mist
49.0 F

Advertise Here

Advertise Here